| time (UTC) | temp C | wind direction | speed KPH | gust KPH | rain 1hr cm | rain 24hr cm | rain mn cm | humidity % | barometer mb |
| 20260506203942 | 10 | 25 | 4.8 | 8.0 | 0.00 | 0.15 | 0.15 | 85 | 1011.2 |
| 20260506202942 | 10 | 23 | 3.2 | 8.0 | 0.00 | 0.15 | 0.15 | 85 | 1011.1 |
| 20260506201942 | 10 | 23 | 3.2 | 8.0 | 0.00 | 0.15 | 0.15 | 85 | 1011.1 |
| 20260506195942 | 10 | 3 | 3.2 | 6.4 | 0.00 | 0.15 | 0.15 | 86 | 1010.8 |
| 20260506194941 | 10 | 17 | 3.2 | 6.4 | 0.00 | 0.15 | 0.15 | 87 | 1010.8 |
| 20260506193941 | 10 | 24 | 1.6 | 6.4 | 0.00 | 0.15 | 0.15 | 87 | 1010.8 |
| 20260506192941 | 10 | 26 | 0.0 | 4.8 | 0.00 | 0.15 | 0.15 | 86 | 1010.6 |
| 20260506191942 | 10 | 25 | 3.2 | 6.4 | 0.00 | 0.15 | 0.15 | 85 | 1010.6 |
| 20260506190942 | 10 | 32 | 1.6 | 4.8 | 0.00 | 0.15 | 0.15 | 85 | 1010.3 |
| 20260506185942 | 10 | 37 | 3.2 | 6.4 | 0.00 | 0.15 | 0.15 | 85 | 1010.3 |
| 20260506184942 | 10 | 29 | 3.2 | 8.0 | 0.00 | 0.15 | 0.15 | 85 | 1010.3 |
| 20260506183943 | 10 | 38 | 6.4 | 12.9 | 0.00 | 0.15 | 0.15 | 84 | 1010.2 |
| 20260506181941 | 10 | 30 | 11.3 | 19.3 | 0.00 | 0.15 | 0.15 | 84 | 1009.9 |
| 20260506180941 | 10 | 26 | 6.4 | 11.3 | 0.00 | 0.15 | 0.15 | 85 | 1009.8 |
| 20260506175942 | 10 | 32 | 6.4 | 11.3 | 0.00 | 0.15 | 0.15 | 86 | 1009.7 |
| 20260506174942 | 10 | 40 | 6.4 | 11.3 | 0.00 | 0.15 | 0.15 | 86 | 1009.7 |
| 20260506173942 | 10 | 43 | 9.7 | 14.5 | 0.00 | 0.15 | 0.15 | 85 | 1009.4 |
| 20260506172942 | 10 | 45 | 9.7 | 14.5 | 0.00 | 0.15 | 0.15 | 86 | 1009.3 |
| 20260506171941 | 10 | 36 | 12.9 | 19.3 | 0.00 | 0.15 | 0.15 | 85 | 1009.3 |
| 20260506164942 | 10 | 32 | 9.7 | 16.1 | 0.00 | 0.15 | 0.15 | 85 | 1009.0 |
| 20260506163941 | 10 | 23 | 9.7 | 17.7 | 0.00 | 0.15 | 0.15 | 84 | 1009.0 |
| 20260506162942 | 10 | 27 | 11.3 | 20.9 | 0.00 | 0.15 | 0.15 | 83 | 1009.1 |
| 20260506161942 | 11 | 22 | 11.3 | 22.5 | 0.00 | 0.15 | 0.15 | 82 | 1009.1 |
| 20260506160942 | 11 | 30 | 12.9 | 22.5 | 0.00 | 0.15 | 0.15 | 82 | 1009.0 |
| 20260506155942 | 11 | 26 | 11.3 | 19.3 | 0.00 | 0.15 | 0.15 | 81 | 1008.9 |
| 20260506154943 | 11 | 12 | 11.3 | 17.7 | 0.00 | 0.15 | 0.15 | 79 | 1008.9 |
| 20260506153944 | 11 | 11 | 11.3 | 20.9 | 0.00 | 0.15 | 0.15 | 78 | 1008.8 |
| 20260506152942 | 11 | 357 | 12.9 | 20.9 | 0.00 | 0.15 | 0.15 | 78 | 1008.7 |
| 20260506151942 | 11 | 345 | 14.5 | 24.1 | 0.00 | 0.15 | 0.15 | 78 | 1008.7 |
| 20260506150942 | 11 | 10 | 9.7 | 17.7 | 0.00 | 0.15 | 0.15 | 77 | 1008.7 |
| 20260506145943 | 12 | 355 | 12.9 | 25.7 | 0.00 | 0.15 | 0.15 | 77 | 1008.7 |
| 20260506144942 | 12 | 16 | 11.3 | 19.3 | 0.00 | 0.15 | 0.15 | 75 | 1008.7 |
| 20260506143942 | 12 | 328 | 11.3 | 19.3 | 0.00 | 0.15 | 0.15 | 75 | 1008.7 |
| 20260506142942 | 12 | 12 | 9.7 | 14.5 | 0.00 | 0.15 | 0.15 | 75 | 1008.6 |
| 20260506141943 | 12 | 295 | 11.3 | 16.1 | 0.00 | 0.15 | 0.15 | 75 | 1008.6 |
| 20260506140942 | 12 | 357 | 11.3 | 19.3 | 0.00 | 0.15 | 0.15 | 74 | 1008.6 |
| 20260506135942 | 12 | 356 | 11.3 | 17.7 | 0.00 | 0.15 | 0.15 | 77 | 1008.6 |
| 20260506134942 | 11 | 41 | 11.3 | 20.9 | 0.00 | 0.15 | 0.15 | 75 | 1008.6 |
| 20260506133942 | 11 | 354 | 12.9 | 25.7 | 0.00 | 0.15 | 0.15 | 75 | 1008.6 |
| 20260506131942 | 11 | 25 | 11.3 | 19.3 | 0.00 | 0.15 | 0.15 | 75 | 1008.5 |
| 20260506130943 | 11 | 21 | 11.3 | 20.9 | 0.00 | 0.15 | 0.15 | 77 | 1008.5 |
| 20260506125943 | 11 | 27 | 12.9 | 25.7 | 0.00 | 0.15 | 0.15 | 77 | 1008.3 |
| 20260506124942 | 11 | 22 | 11.3 | 17.7 | 0.00 | 0.15 | 0.15 | 79 | 1008.3 |
| 20260506123944 | 11 | 30 | 12.9 | 22.5 | 0.00 | 0.15 | 0.15 | 77 | 1008.3 |
| 20260506122942 | 11 | 25 | 12.9 | 25.7 | 0.00 | 0.15 | 0.15 | 77 | 1008.2 |
| 20260506121943 | 11 | 19 | 12.9 | 19.3 | 0.00 | 0.15 | 0.15 | 77 | 1008.2 |
| 20260506120943 | 12 | 13 | 11.3 | 22.5 | 0.00 | 0.15 | 0.15 | 76 | 1008.1 |
| 20260506115943 | 12 | 14 | 9.7 | 19.3 | 0.00 | 0.15 | 0.15 | 77 | 1008.1 |
| 20260506114943 | 12 | 17 | 11.3 | 19.3 | 0.00 | 0.15 | 0.15 | 77 | 1008.1 |
| 20260506113943 | 12 | 359 | 12.9 | 22.5 | 0.00 | 0.15 | 0.15 | 80 | 1008.0 |
| 20260506112943 | 12 | 33 | 11.3 | 20.9 | 0.00 | 0.15 | 0.15 | 80 | 1008.0 |
| 20260506111942 | 12 | 42 | 16.1 | 20.9 | 0.00 | 0.15 | 0.15 | 82 | 1008.0 |
| 20260506105943 | 12 | 33 | 12.9 | 20.9 | 0.00 | 0.15 | 0.15 | 83 | 1008.1 |
| 20260506104943 | 11 | 32 | 14.5 | 22.5 | 0.00 | 0.15 | 0.15 | 84 | 1008.1 |
| 20260506103943 | 12 | 27 | 11.3 | 20.9 | 0.00 | 0.15 | 0.15 | 86 | 1007.8 |
| 20260506102943 | 11 | 29 | 12.9 | 19.3 | 0.00 | 0.15 | 0.15 | 86 | 1007.7 |
| 20260506101943 | 11 | 37 | 14.5 | 22.5 | 0.00 | 0.15 | 0.15 | 86 | 1007.7 |
| 20260506100943 | 11 | 31 | 11.3 | 19.3 | 0.00 | 0.15 | 0.15 | 87 | 1007.7 |
| 20260506095943 | 11 | 31 | 9.7 | 19.3 | 0.00 | 0.15 | 0.15 | 86 | 1007.6 |
| 20260506094943 | 11 | 12 | 11.3 | 20.9 | 0.03 | 0.15 | 0.15 | 86 | 1007.6 |
| 20260506092944 | 11 | 357 | 9.7 | 17.7 | 0.03 | 0.15 | 0.15 | 88 | 1007.4 |
| 20260506091943 | 11 | 356 | 11.3 | 20.9 | 0.03 | 0.15 | 0.15 | 88 | 1007.4 |
| 20260506090943 | 11 | 349 | 14.5 | 27.4 | 0.03 | 0.15 | 0.15 | 88 | 1007.3 |
| 20260506085943 | 11 | 351 | 11.3 | 17.7 | 0.03 | 0.15 | 0.15 | 91 | 1007.2 |
| 20260506084944 | 11 | 27 | 9.7 | 16.1 | 0.00 | 0.15 | 0.13 | 91 | 1007.2 |
| 20260506083943 | 10 | 8 | 11.3 | 16.1 | 0.00 | 0.15 | 0.13 | 92 | 1007.1 |
| 20260506082943 | 10 | 358 | 11.3 | 17.7 | 0.00 | 0.15 | 0.13 | 92 | 1007.1 |
| 20260506080943 | 10 | 344 | 9.7 | 16.1 | 0.00 | 0.15 | 0.13 | 94 | 1007.1 |
| 20260506072943 | 10 | 308 | 11.3 | 17.7 | 0.00 | 0.15 | 0.13 | 96 | 1007.1 |
| 20260506071943 | 9 | 307 | 11.3 | 16.1 | 0.00 | 0.18 | 0.13 | 96 | 1007.1 |
| 20260506070943 | 9 | 304 | 9.7 | 16.1 | 0.00 | 0.18 | 0.13 | 96 | 1007.1 |
| 20260506042944 | 8 | 2 | 9.7 | 16.1 | 0.00 | 0.23 | 0.10 | 97 | 1006.6 |
| 20260506041944 | 8 | 357 | 9.7 | 19.3 | 0.00 | 0.25 | 0.10 | 97 | 1006.6 |
| 20260506040944 | 8 | 352 | 9.7 | 16.1 | 0.00 | 0.28 | 0.10 | 98 | 1006.6 |
| 20260506034943 | 8 | 342 | 11.3 | 19.3 | 0.00 | 0.30 | 0.10 | 98 | 1006.6 |
| 20260506033944 | 8 | 353 | 11.3 | 17.7 | 0.00 | 0.33 | 0.10 | 98 | 1006.6 |
| 20260506032944 | 8 | 342 | 11.3 | 17.7 | 0.00 | 0.33 | 0.10 | 98 | 1006.7 |
| 20260506031944 | 8 | 345 | 11.3 | 19.3 | 0.03 | 0.33 | 0.10 | 98 | 1006.7 |
| 20260506030943 | 8 | 357 | 9.7 | 17.7 | 0.03 | 0.33 | 0.10 | 97 | 1006.8 |
| 20260506025944 | 8 | 329 | 11.3 | 20.9 | 0.03 | 0.33 | 0.10 | 97 | 1006.9 |
| 20260506024944 | 8 | 356 | 11.3 | 16.1 | 0.05 | 0.33 | 0.10 | 97 | 1006.9 |
| 20260506023944 | 8 | 349 | 11.3 | 17.7 | 0.05 | 0.33 | 0.10 | 97 | 1007.0 |
| 20260506022944 | 8 | 355 | 9.7 | 16.1 | 0.05 | 0.33 | 0.08 | 97 | 1007.1 |
| 20260506020945 | 8 | 352 | 11.3 | 17.7 | 0.05 | 0.33 | 0.08 | 96 | 1007.1 |
| 20260506015944 | 8 | 339 | 11.3 | 16.1 | 0.05 | 0.33 | 0.08 | 96 | 1007.1 |
| 20260506014944 | 9 | 350 | 9.7 | 14.5 | 0.05 | 0.30 | 0.05 | 95 | 1007.1 |
| 20260506011944 | 9 | 6 | 9.7 | 14.5 | 0.03 | 0.25 | 0.03 | 93 | 1007.1 |
| 20260506010944 | 9 | 8 | 8.0 | 14.5 | 0.03 | 0.25 | 0.03 | 92 | 1007.2 |
| 20260506005944 | 9 | 8 | 9.7 | 16.1 | 0.03 | 0.28 | 0.03 | 92 | 1007.4 |
| 20260506004944 | 9 | 18 | 9.7 | 25.7 | 0.00 | 0.28 | 0.00 | 91 | 1007.4 |
| 20260506002944 | 10 | 11 | 9.7 | 16.1 | 0.00 | 0.28 | 0.00 | 90 | 1007.6 |
| 20260506001944 | 10 | 17 | 9.7 | 17.7 | 0.00 | 0.30 | 0.00 | 90 | 1007.6 |
| 20260506000945 | 10 | 6 | 11.3 | 19.3 | 0.00 | 0.33 | 0.00 | 91 | 1007.7 |
| 20260505235945 | 10 | 13 | 9.7 | 17.7 | 0.00 | 0.33 | 0.00 | 91 | 1007.7 |
| 20260505234946 | 10 | 11 | 11.3 | 19.3 | 0.00 | 0.33 | 0.00 | 91 | 1007.7 |
| 20260505233945 | 10 | 11 | 9.7 | 17.7 | 0.00 | 0.33 | 0.00 | 91 | 1007.8 |
| 20260505232945 | 10 | 13 | 11.3 | 17.7 | 0.00 | 0.38 | 0.00 | 91 | 1007.8 |
| 20260505225945 | 10 | 4 | 12.9 | 24.1 | 0.00 | 0.46 | 0.00 | 91 | 1008.1 |
| 20260505223945 | 10 | 1 | 11.3 | 20.9 | 0.00 | 0.48 | 0.00 | 92 | 1008.1 |
| 20260505221945 | 10 | 13 | 9.7 | 19.3 | 0.00 | 0.51 | 0.00 | 93 | 1008.2 |
| 20260505220945 | 10 | 356 | 8.0 | 16.1 | 0.00 | 0.51 | 0.00 | 93 | 1008.3 |
| 20260505215950 | 10 | 4 | 8.0 | 12.9 | 0.00 | 0.51 | 0.00 | 93 | 1008.3 |
| 20260505214945 | 10 | 18 | 9.7 | 16.1 | 0.00 | 0.51 | 0.51 | 93 | 1008.3 |
| 20260505213944 | 10 | 21 | 11.3 | 19.3 | 0.00 | 0.51 | 0.51 | 92 | 1008.4 |
| 20260505212945 | 10 | 19 | 9.7 | 20.9 | 0.00 | 0.51 | 0.51 | 93 | 1008.5 |
| 20260505211945 | 10 | 17 | 6.4 | 14.5 | 0.00 | 0.51 | 0.51 | 93 | 1008.5 |
| 20260505205945 | 10 | 21 | 8.0 | 12.9 | 0.00 | 0.51 | 0.51 | 93 | 1008.6 |
| 20260505204944 | 10 | 27 | 8.0 | 12.9 | 0.00 | 0.51 | 0.51 | 93 | 1008.6 |